This demonstration page uses our WeatherBlox Daily Observations layout. Learn more.

Left ArrowRight Arrow

40.92501, -98.34201

Hourly Observations for July 3, 2021

Temp ( °F °C ) Dew Point ( °F °C ) Humidity (%) Winds ( mph kmh ) Pressure ( in mb ) Visibility ( mi km ) Precip ( " mm )
12:53 am 00:53 Mostly Clear 71 21.7 61 16.1 71 71 SSE 7 11 30.08 1019 10 16 0.00 0.00
1:53 am 01:53 Partly Cloudy 71 21.7 59 15 66 66 S 9 15 30.07 1018 10 16 0.00 0.00
2:53 am 02:53 Partly Cloudy 70 21.1 57 13.9 64 64 S 9 15 30.07 1018 10 16 0.00 0.00
3:53 am 03:53 Clear 68 20 58 14.4 70 70 S 8 13 30.06 1018 10 16 0.00 0.00
4:53 am 04:53 Clear 72 22.2 57 13.9 59 59 SSW 13 20 30.04 1017 10 16 0.00 0.00
5:53 am 05:53 Clear 72 22.2 57 13.9 59 59 SSW 10 17 30.05 1018 10 16 0.00 0.00
6:53 am 06:53 Sunny 72 22.2 57 13.9 59 59 S 9 15 30.05 1018 10 16 0.00 0.00
7:53 am 07:53 Sunny 75 23.9 58 14.4 55 55 SSW 12 19 30.05 1018 10 16 0.00 0.00
8:53 am 08:53 Sunny 78 25.6 59 15 52 52 SSW 13 20 30.05 1018 10 16 0.00 0.00
9:53 am 09:53 Sunny 81 27.2 62 16.7 53 53 SW 15 24 30.05 1018 10 16 0.00 0.00
10:53 am 10:53 Sunny 84 28.9 63 17.2 49 49 SSW 12 19 30.04 1017 10 16 0.00 0.00
11:53 am 11:53 Sunny 86 30 61 16.1 43 43 SSW 14 22 30.03 1017 10 16 0.00 0.00
12:53 pm 12:53 Mostly Cloudy 86 30 57 13.9 37 37 S 15 24 30.02 1017 10 16 0.00 0.00
1:53 pm 13:53 Sunny 88 31.1 58 14.4 36 36 S 16 26 30.00 1016 10 16 0.00 0.00
2:53 pm 14:53 Mostly Sunny 88 31.1 60 15.6 39 39 S 15 24 29.99 1016 10 16 0.00 0.00
3:53 pm 15:53 Mostly Sunny 88 31.1 59 15 38 38 S 14 22 29.97 1015 10 16 0.00 0.00
4:53 pm 16:53 Mostly Sunny 88 31.1 59 15 38 38 S 13 20 29.95 1014 10 16 0.00 0.00
5:53 pm 17:53 Sunny 88 31.1 59 15 38 38 S 15 24 29.93 1014 10 16 0.00 0.00
6:53 pm 18:53 Sunny 87 30.6 59 15 39 39 S 16 26 29.92 1013 10 16 0.00 0.00
7:53 pm 19:53 Sunny 84 28.9 59 15 43 43 S 10 17 29.91 1013 10 16 0.00 0.00
8:53 pm 20:53 Sunny 79 26.1 57 13.9 47 47 S 8 13 29.92 1013 10 16 0.00 0.00
9:53 pm 21:53 Clear 74 23.3 59 15 60 60 S 5 7 29.94 1014 10 16 0.00 0.00
10:53 pm 22:53 Clear 73 22.8 60 15.6 64 64 S 8 13 29.95 1014 7 11 0.00 0.00
11:53 pm 23:53 Clear 73 22.8 57 13.9 57 57 S 9 15 29.93 1014 10 16 0.00 0.00

Powered by AerisWeather